Regional Weather Roundup
Issued by NWS

Home | Current Version | Previous Version | Text Only | Print | Product List | Glossary On
Versions: 1 2 3 4 5 6 7 8 9 10 11 12 13 14 15 16 17 18 19 20 21 22 23 24 25 26 27
000
ASUS44 KJAN 162310
RWRMS

MISSISSIPPI HOURLY WEATHER ROUNDUP
NATIONAL WEATHER SERVICE JACKSON MS
500 PM CST TUE JAN 16 2018

NOTE: "FAIR: INDICATES FEW OR NO CLOUDS BELOW 12,000 FEET WITH NO
SIGNIFICANT WEATHER AND/OR OBSTRUCTIONS TO VISIBILITY.

MSZ001>002-007>008-010>013-018>021-025>028-034>036-170000-
NORTHWEST MISSISSIPPI

CITY           SKY/WX    TMP DP  RH WIND       PRES   REMARKS
BATESVILLE     FAIR      16   2  53 NW10G16   30.66S WCI   4
CLARKSDALE     CLEAR     16   5  62 N13       30.69R WCI   2
CLEVELAND      FAIR      16   5  60 N16       30.68R WCI   1
GREENWOOD      FAIR      19   9  65 N9        30.65R WCI   8
GREENVILLE     FAIR      18   4  54 N15       30.66R WCI   4
OLIVE BRANCH   CLEAR     10   1  67 N10       30.62S WCI  -3
OXFORD         FAIR      16   3  57 NW13G18   30.63R WCI   2
TUNICA           N/A     14   3  62 N9        30.69F WCI   2
WINONA         FAIR      20   9  64 NW7       30.60R WCI  11
$$

MSZ003>006-009-014>017-022>024-029>033-037>039-170000-
NORTHEAST MISSISSIPPI

CITY           SKY/WX    TMP DP  RH WIND       PRES   REMARKS
ABERDEEN         N/A     21  19  93 N12       30.60S WCI   9
COLUMBUS AFB   CLOUDY   N/A N/A N/A NW12      30.59S
CORINTH        FLURRIES  18   1  49 NW12      30.60S WCI   5
GOLDN TRIANGLE CLOUDY    20  13  74 N13       30.58S WCI   7
STARKVILLE     MOCLDY    21  14  73 N5        30.59S WCI  15
TUPELO         FAIR      19   4  51 NW10      30.59S WCI   7
$$

MSZ040-058-170000-
CENTRAL MISSISSIPPI

CITY           SKY/WX    TMP DP  RH WIND       PRES   REMARKS
JACKSON INTL   CLOUDY    21  13  71 NW13      30.57R WCI   9
JACKSON HAWKNS CLOUDY    21  12  68 N12       30.59R WCI   9
MADISON        FAIR      21  12  68 NW10      30.59R WCI  10
MERIDIAN KEY   LGT SNOW  26  22  84 N15       30.53S FOG     WCI  14
MERIDIAN NAS   LGT SNOW  25  20  81 N10       30.54R WCI  15
RAYMOND        FAIR      21  10  63 NW12G22   30.60R WCI   9
VICKSBURG VKS  PTCLDY    23  12  63 N13       30.63S WCI  11
$$

MSZ059>079-170000-
SOUTH MISSISSIPPI

CITY           SKY/WX    TMP DP  RH WIND       PRES   REMARKS
COLUMBIA       LGT SNOW  27  23  86 N8G15     30.57R WCI  18
HATTIESBURG    CLOUDY    31  25  78 N13G21    30.51R WCI  21
LAUREL         CLOUDY    28  25  89 N6        30.53S WCI  21
MCCOMB         LGT SNOW  25  20  81 N12       30.52R WCI  14
NATCHEZ        CLOUDY    22  15  75 N12G20    30.59F WCI  10
PINE BELT      LGT SNOW  28  25  88 N13G18    30.51S FOG     WCI  17
$$

MSZ080>082-170000-
COASTAL MISSISSIPPI

CITY           SKY/WX    TMP DP  RH WIND       PRES   REMARKS
BILOXI         CLOUDY    43  32  65 N21       30.41R
PASCAGOULA     CLOUDY    42  33  70 N16G22    30.40S
GULFPORT       CLOUDY    41  29  62 N18G29    30.42R
$$

LAZ007>009-015>016-023>026-170000-
NORTHEAST LOUISIANA

CITY           SKY/WX    TMP DP  RH WIND       PRES   REMARKS
BASTROP        FAIR      24  10  54 N6        30.65R WCI  17
TALLULAH/VBURG CLOUDY    22  14  71 N9        30.64R WCI  12
VIDALIA        CLOUDY    24  16  71 MISG      30.60F
$$




USA.gov is the U.S. government's official web portal to all federal, state and local government web resources and services.